Regional Weather Roundup
Issued by NWS Newport/Morehead, NC

Current Version | Previous Version | Graphics & Text | Print | Product List | Glossary Off
Versions: 1 2 3 4 5 6 7 8 9 10 11 12 13 14 15 16 17 18 19 20 21 22 23 24 25 26 27 28 29 30 31 32 33 34 35 36 37 38 39 40 41 42 43 44 45 46 47 48 49 50

000
ASUS42 KMHX 270924
RWRMHX
WEATHER ROUNDUP FOR EASTERN NORTH CAROLINA
NATIONAL WEATHER SERVICE NEWPORT/MOREHEAD CITY NC
500 AM EDT FRI MAR 27 2015

NOTE: "FAIR" INDICATES FEW OR NO CLOUDS BELOW 12,000 FEET
WITH NO SIGNIFICANT WEATHER AND/OR OBSTRUCTIONS TO VISIBILITY

NCZ015>017-031-032-045>047-102-103-271000-
NORTH COAST

CITY           SKY/WX    TMP DP  RH WIND       PRES   REMARKS
EDENTON        DRIZZLE   61  57  88 S7        29.66F
ELIZABETH CITY CLOUDY    63  58  83 SW13      29.65F
KITTY HAWK     CLOUDY    65  57  77 SW8       29.65F
MANTEO         CLOUDY    63  56  79 SW13      29.66F

$$

NCZ045>047-081-094-103-104-271000-
CENTRAL COAST

CITY           SKY/WX    TMP DP  RH WIND       PRES   REMARKS
FRISCO         CLOUDY    62  60  93 W8        29.68F
SWANQUARTER      N/A     63 N/A N/A SW9       29.62F

$$

NCZ095-097-098-100-101-271000-
SOUTHERN COAST

CITY           SKY/WX    TMP DP  RH WIND       PRES   REMARKS
BEAUFORT       RAIN      62  61  96 W9        29.70F
CEDAR ISLAND     N/A     64 N/A N/A SW9       29.74S
JACKSONVILLE   LGT RAIN  63  60  90 S7        29.69F
PINEY ISLAND   LGT RAIN N/A N/A N/A SW10      29.69F
WILMINGTON     CLOUDY    63  62  97 SW5       29.69F


$$

NCZ011>013-027>030-043-044-078>080-089-090>093-098-271000-
COASTAL PLAIN

CITY           SKY/WX    TMP DP  RH WIND       PRES   REMARKS
AHOSKIE        CLOUDY    62  56  81 S3        29.64F
CLINTON        LGT RAIN  63  58  85 CALM      29.67F
ELIZABETHTOWN  CLOUDY    63  59  85 SW7       29.68F
GOLDSBORO      CLOUDY    64  64  98 S1        29.64F
GREENVILLE     DRIZZLE   63  57  82 S9        29.69F
HAVELOCK       LGT RAIN  64  60  87 SW9       29.71F
KENANSVILLE    CLOUDY    62  57  83 CALM      29.69S
KINSTON        LGT RAIN  63  58  85 S8        29.68S
NEW BERN       LGT RAIN  64  60  87 S8        29.69F
RICHLANDS      CLOUDY    63  57  82 SW7       29.70S
ROCKY MOUNT    CLOUDY    64  58  80 S6        29.65F
WASHINGTON     LGT RAIN  62  59  91 SW6       29.67F
WHITEVILLE     CLOUDY    63  58  84 CALM      29.68F

$$

AMZ130-135-150-152-154-156-158-170-250-252-270-ANZ085-086-088-633-658-670-271000-
MARINE OBSERVATIONS

STATION/POSITION TIME  TEMP    WIND        PRES    WAVE   SWELL
                       AIR SEA DIR/SP/G            HT/PER HT/PER
                 (UTC) (F)     (DEG/KT/KT) (MB)    (FT/S) (FT/S)
CHESAPEAKE LIGHT 0900   49     350/ 23/ 25 1004.9
64 E VA BEACH    0850   56 51  220/ 14/ 16 1003.3    8/10   7/10
DUCK             0800   63 40  220/ 11/ 16 1004.1
2 E DUCK         0911      42                N/A     4/ 9   2/11
10 NE DUCK       NOT AVBL
OREGON INLET     0800   60 60  210/  8/  9 1005.4
HATTERAS CG      0800   64 60  240/  8/ 12 1006.0
CAPE LOOKOUT     0900   64     240/  9/ 13 1005.2
BEAUFORT LAB     0800   61 58  230/  3/  5 1005.1
27 SE WRIGHTSVLE 0800   63 64  260/ 10/ 14 1008.0
5 SE WRIGHTSVLE  0900   60 57  270/  6/  8 1005.2
225 S CAPE HAT   0850   71 69  210/ 19/ 25 1009.8    9/ 8   2/14
41 SE CHARLESTON 0850   68 70  240/ 19/ 23 1005.3    6/ 8   3/ 8

$$


USA.gov is the U.S. government's official web portal to all federal, state and local government web resources and services.